STARLINK-35653, 66122

Orbit data source: Space-Track

STARLINK-35653, 66122 is a payload satellite owned by SpaceX/Seattle (US) in LEO that was launched on Wed, 22 Oct 2025 UTC via an FALCON 9 launch vehicle from the Air Force Western Test Range (AFWTR). Payload-class satellites include a variety of spacecraft equipped with specific instruments for various scientific and technological missions. These include communications satellites like Starlink; space stations such as the ISS; scientific satellites like the Hubble; Earth observation satellites from companies like Planet Labs, Umbra, and HawkEye 360; GPS; miniature CubeSats for education and research; and military/defense satellites.

Loading next visibility...
Identifier
66122, 2025-237J
Orbit
LEO
Country
Flag of USUS
Related business
Manufacturer
SpaceX/Seattle
Mission
Operational Commercial Communications
Bus & Motor
STARLINK V2MO, Unknown motor
Mass
575 kg wet, ~530 kg dry
Launch date (UTC)
2025-10-22 (4 months ago)
Launch vehicle
FALCON 9
Launch site
Air Force Western Test Range (AFWTR)
Object type
Payload
Rocket body
Debris
Shape & HBR
Box + 2 Pan, 17.7 m
Radar Cross Section
36.964 m²

Expand to show TLE details & history
Last TLE update: 15 hours ago

TLE from 15 hours ago
0 STARLINK-35653
1 66122U 25237J   26061.46602772  .00028890  00000-0  98354-3 0  9994
2 66122  53.1580  73.2457 0001928  40.7412 319.3733 15.30206817 21507
Epoch: 2026-03-02T11:11Z
TLE epoch observation values (Epoch: 2026-03-02T11:11:04.795Z)
Latitude
-0.00002°
Longitude
105.21667°
Altitude
475.091 km
Speed
7.63 km/s
True Right ascension
04h 52m 58s
True Declination
0° 00' 00"
Sunlit
Object was in daylight at epoch
Visualization orbit readout
Latitude
Unknown
Longitude
Unknown
Altitude
Unknown
Speed
Unknown
Apparent Right ascension
Unknown
Apparent Declination
Unknown
Sunlit
N/A
Visualization observer readout
Local Sidereal Time
05:25:21
Azimuth
Unknown
Elevation
Unknown
Doppler factor
Unknown
Orbital elements
Apogee altitude
476.773 km
Perigee altitude
474.13 km
Semi-major axis
6,853.588 km
Eccentricity
0.00019
Inclination
53.158°
RAAN
73.2457°
Arg. of periapsis
40.7412°
True anomaly
319.35891°
Mean anomaly
319.3733°
Eccentric anomaly
319.36611°
Mean motion
3.82531 °/min
Orbital period
94.11 mins
BSTAR
0.00098354
Loading maneuver chart data...
Computing Atmospheric mass density...
Loading historical data...
Loading historical data...
Loading historical data...
Loading historical data...
Loading historical data...
Loading historical data...
Loading historical data...

Documentation

Showing up to 5 results
|